Satellite-Ground Cal/Val Region Overpasses Predictions

Prediction of Satellite NPP Overpassing Cal/Val Region: PacNW

Region Location: (Latitude: 10.00, Longitude: 139.50) to (Latitude: 22.70, Longitude: 165.60).

Table of predicted overpasses for the next 14.0 days since TLE Epoch: 5/3/2015
Interval Starting Time Starting Location Ending Time Ending Location
1 05/04/2015 02:25:02 ( 10.03, 164.74) 05/04/2015 02:28:37 ( 22.65, 161.75)
2 05/04/2015 14:56:56 ( 22.65, 161.95) 05/04/2015 15:00:31 ( 10.02, 158.96)
3 05/05/2015 03:47:30 ( 10.05, 144.12) 05/05/2015 03:51:05 ( 22.67, 141.12)
4 05/05/2015 14:39:11 ( 18.12, 165.59) 05/05/2015 14:41:29 ( 10.01, 163.71)
5 05/05/2015 16:19:23 ( 22.69, 141.34) 05/05/2015 16:21:32 ( 15.12, 139.51)
6 05/06/2015 03:28:28 ( 10.00, 148.88) 05/06/2015 03:32:04 ( 22.68, 145.87)
7 05/06/2015 16:00:22 ( 22.67, 146.09) 05/06/2015 16:03:57 ( 10.05, 143.09)
8 05/07/2015 03:09:26 ( 10.02, 153.63) 05/07/2015 03:13:01 ( 22.64, 150.64)
9 05/07/2015 15:41:20 ( 22.65, 150.84) 05/07/2015 15:44:55 ( 10.03, 147.84)
10 05/08/2015 02:50:25 ( 10.04, 158.38) 05/08/2015 02:54:00 ( 22.66, 155.39)
11 05/08/2015 15:22:18 ( 22.70, 155.60) 05/08/2015 15:25:54 ( 10.01, 152.59)
12 05/09/2015 02:31:24 ( 10.05, 163.13) 05/09/2015 02:34:59 ( 22.67, 160.14)
13 05/09/2015 15:03:16 ( 22.68, 160.35) 05/09/2015 15:06:51 ( 10.06, 157.36)
14 05/10/2015 02:15:08 ( 19.82, 165.59) 05/10/2015 02:15:57 ( 22.69, 164.89)
15 05/10/2015 03:53:51 ( 10.02, 142.52) 05/10/2015 03:57:27 ( 22.70, 139.51)
16 05/10/2015 14:44:15 ( 22.66, 165.10) 05/10/2015 14:47:50 ( 10.04, 162.10)
17 05/10/2015 16:25:45 ( 22.65, 139.72) 05/10/2015 16:26:00 ( 21.78, 139.50)
18 05/11/2015 03:34:50 ( 10.04, 147.27) 05/11/2015 03:38:25 ( 22.66, 144.27)
19 05/11/2015 16:06:42 ( 22.69, 144.49) 05/11/2015 16:10:18 ( 10.01, 141.48)
20 05/12/2015 03:15:48 ( 10.05, 152.02) 05/12/2015 03:19:23 ( 22.68, 149.02)
21 05/12/2015 15:47:41 ( 22.67, 149.24) 05/12/2015 15:51:16 ( 10.05, 146.24)
22 05/13/2015 02:56:46 ( 10.02, 156.78) 05/13/2015 03:00:22 ( 22.70, 153.77)
23 05/13/2015 15:28:39 ( 22.65, 153.98) 05/13/2015 15:32:14 ( 10.03, 150.99)
24 05/14/2015 02:37:44 ( 10.04, 161.53) 05/14/2015 02:41:19 ( 22.66, 158.53)
25 05/14/2015 15:09:37 ( 22.69, 158.75) 05/14/2015 15:13:13 ( 10.01, 155.74)
26 05/15/2015 02:19:34 ( 13.06, 165.59) 05/15/2015 02:22:18 ( 22.68, 163.28)
27 05/15/2015 04:00:12 ( 10.01, 140.91) 05/15/2015 04:01:56 ( 16.12, 139.50)
28 05/15/2015 14:50:36 ( 22.67, 163.49) 05/15/2015 14:54:11 ( 10.05, 160.50)
29 05/16/2015 03:41:10 ( 10.03, 145.66) 05/16/2015 03:44:45 ( 22.65, 142.67)
30 05/16/2015 14:34:43 ( 11.55, 165.60) 05/16/2015 14:35:09 ( 10.02, 165.25)
31 05/16/2015 16:13:03 ( 22.70, 142.88) 05/16/2015 16:16:39 ( 10.02, 139.87)
32 05/17/2015 03:22:09 ( 10.05, 150.41) 05/17/2015 03:25:44 ( 22.68, 147.42)


NCC Satellite Cal/Val Overpasses Prediction Service
